[[{"header":{"parameterUnit":"m.s-1","parameterCategory":1,"la1":30.2991,"la2":30.254,"lo1":-89.0895,"lo2":-89.0444,"dy":0.0017,"dx":0.0017,"nx":28,"ny":28,"refTime":"2024-07-21T09:00:00:Z","depth":0,"parameterNumber":2,"parameterNumberName":"U-component_of_WINDS"},"data":[0,0,0,0,0,0,0,0,0,0,0,0,0,0,0,0,0,0,0,0,0,0,0,0,0,0,0,0,0,0,0,0,0,0,0,0,0,0,0,0,0,0,0,0,0,0,0,0,0,0,0,0,0,0,0,0,0,0,2.0097,2.0098,0,2.0125,2.0125,2.0126,2.0118,2.0117,2.0116,2.0116,2.0147,2.0149,2.015,0,0,0,0,0,0,0,0,0,0,0,0,0,2.004,2.0041,2.0097,2.0098,2.0098,2.0125,2.0126,2.0126,2.0118,2.0117,2.0116,2.0116,2.0147,2.0148,2.015,0,0,0,0,0,0,0,0,0,0,0,0,0,2.0066,2.0042,2.0097,2.0097,2.0098,2.0125,2.0126,2.0126,2.0118,2.0117,2.0116,2.0115,2.0146,2.0148,2.015,2.018,0,0,2.0157,2.0157,0,0,0,0,0,0,0,0,2.0065,2.0068,2.0097,2.0097,2.0098,2.0117,2.0117,2.0144,2.0118,2.011,2.0116,2.0115,2.0138,2.0141,2.0148,2.0182,2.0183,2.0157,2.0158,2.0159,2.0159,0,0,0,0,0,0,0,2.0063,2.0067,2.0108,2.0097,2.0098,2.0097,2.0099,2.0122,2.0129,2.0111,2.011,2.0114,2.0138,2.0146,2.0149,2.0184,2.0157,2.0158,2.016,2.0161,2.0244,2.0245,0,0,0,0,0,0,2.0061,2.0066,2.0108,2.0109,2.0079,2.0098,2.0102,2.0112,2.0129,2.013,2.0114,2.0113,2.0143,2.0146,2.015,2.0186,2.0159,2.0161,2.0162,2.0243,2.0244,2.0245,0,0,0,0,0,0,2.0059,2.0064,2.0106,2.0087,2.0093,2.01,2.0112,2.0113,2.012,2.0131,2.0133,2.0121,2.0142,2.0147,2.0173,2.0187,2.0162,2.0164,2.0242,2.0243,2.0245,2.0259,0,0,0,0,0,0,2.0058,2.0064,2.0075,2.0088,2.0094,2.0128,2.0113,2.0114,2.0124,2.0122,2.0138,2.0139,2.0142,2.017,2.0175,2.0189,2.0165,2.0241,2.0243,2.0244,2.0257,2.026,2.0263,0,0,0,0,0,2.0056,2.0078,2.0075,2.0081,2.0107,2.0129,2.0133,2.0134,2.0125,2.0136,2.0143,2.0139,2.0185,2.0172,2.0178,2.0193,2.024,2.0242,2.0244,2.0256,2.026,2.0263,0,0,0,0,0,0,2.0068,2.008,2.0077,2.0104,2.0115,2.0127,2.0142,2.0139,2.0154,2.0152,2.0154,2.0158,2.0184,2.0192,2.0178,2.0224,2.0211,2.0214,2.0218,2.0222,2.0225,2.0222,2.0167,0,0,0,0,0,2.0074,2.0089,2.0099,2.0122,2.0128,2.0134,2.0144,2.0144,2.0156,2.0161,2.017,2.0183,2.02,2.0211,2.0228,2.0258,2.0261,2.0272,2.0275,2.0277,2.028,2.0297,2.0301,2.0253,2.0252,2.0252,0,0,2.0086,2.0094,2.0104,2.0125,2.0134,2.0151,2.0138,2.0157,2.017,2.0164,2.0189,2.0196,2.0211,2.0239,2.0251,2.0245,2.0295,2.028,2.0282,2.0284,2.03,2.0304,2.0308,2.0254,2.0254,2.0253,0,0,2.0116,2.0124,2.0144,2.0153,2.0166,2.017,2.0175,2.0188,2.0192,2.0216,2.0213,2.0229,2.0258,2.0269,2.0278,2.0313,2.031,2.0319,2.0335,2.0351,2.0355,2.0358,2.0371,2.0375,2.0321,2.0321,2.0321,0,2.013,2.0154,2.0155,2.0174,2.0183,2.0179,2.0199,2.0208,2.0227,2.0234,2.0227,2.0264,2.0273,2.0304,2.0312,2.032,2.0326,2.0316,2.0354,2.0358,2.0361,2.0373,2.0377,2.0322,2.0322,2.0322,2.0322,0,2.017,2.0187,2.0202,2.0219,2.023,2.025,2.0254,2.0266,2.0266,2.027,2.0296,2.0307,2.0326,2.0333,2.0333,2.0364,2.0359,2.0353,2.0341,2.0366,2.0377,2.0382,2.0324,2.0323,2.0323,2.0323,0,0,2.0208,2.0226,2.0231,2.0238,2.0253,2.0267,2.0287,2.0304,2.0314,2.0327,2.0344,2.0369,2.0363,2.0374,2.0375,2.0389,2.0416,2.0382,2.0382,2.0387,2.045,2.0454,2.0459,2.0414,2.0415,2.0416,2.0449,0,2.024,2.0273,2.0275,2.0306,2.0322,2.0318,2.0336,2.0347,2.0352,2.0367,2.0374,2.0391,2.0382,2.0389,2.0403,2.041,2.0429,2.0408,2.043,2.0431,2.0426,2.0465,2.0469,2.05,2.0453,2.0454,2.0454,0,2.0281,2.0294,2.0326,2.0339,2.0346,2.0361,2.0377,2.0391,2.0404,2.0407,2.0419,2.0418,2.0439,2.0426,2.0456,2.0441,2.0451,2.0456,2.0457,2.0459,2.0444,2.0468,2.051,2.0514,2.0461,2.0461,2.046,0,2.0305,2.0331,2.0354,2.0361,2.0376,2.0387,2.0393,2.0406,2.0416,2.043,2.0437,2.0454,2.0464,2.0477,2.0482,2.0472,2.0511,2.0498,2.0514,2.0514,2.0522,2.0521,2.0566,2.0529,2.0529,2.0529,2.0529,0,2.0339,2.0359,2.0365,2.0379,2.0401,2.0403,2.0426,2.0432,2.0443,2.0459,2.0457,2.0472,2.0477,2.0493,2.0497,2.052,2.0525,2.0528,2.0529,2.0528,2.0527,2.0534,2.0531,2.053,2.053,2.053,2.0529,0,2.037,2.0374,2.0399,2.0411,2.0414,2.043,2.0441,2.0455,2.046,2.048,2.0485,2.0493,2.0512,2.0517,2.054,2.0543,2.057,2.0569,2.0565,2.0565,2.0581,2.0579,2.0631,2.0637,2.0597,2.0597,2.0597,0,2.0391,2.0406,2.042,2.043,2.0437,2.0453,2.0463,2.0467,2.0478,2.0494,2.0506,2.0524,2.0539,2.0569,2.0577,2.0595,2.0594,2.0611,2.0597,2.0595,2.0594,2.0593,2.0594,2.0614,2.0614,2.0614,2.0615,0,2.0429,2.043,2.0445,2.046,2.0472,2.0485,2.0497,2.0506,2.0511,2.0523,2.0542,2.0553,2.0576,2.0594,2.0612,2.062,2.0618,2.0619,2.0624,2.0622,2.0619,2.0621,2.0572,2.0618,2.0617,2.0617,2.0617,2.0617,2.0455,2.0468,2.0479,2.0496,2.0505,2.0517,2.053,2.0536,2.0552,2.057,2.0571,2.0592,2.0605,2.0628,2.0637,2.0654,2.0649,2.0656,2.0657,2.0659,2.0659,2.0617,2.0657,2.0657,2.0657,2.0657,2.0657,0,2.0492,2.0499,2.0514,2.053,2.0544,2.054,2.0554,2.0565,2.0582,2.0594,2.0609,2.063,2.0648,2.0658,2.0676,2.0687,2.0687,2.0692,2.0691,2.0692,2.0663,2.0657,2.0692,2.0692,2.0692,2.0692,2.0692,2.0692,2.0512,2.0534,2.0537,2.0564,2.0571,2.059,2.0598,2.0609,2.0618,2.0642,2.0657,2.0663,2.0674,2.0693,2.0709,2.0712,2.0718,2.0724,2.0726,2.0698,2.0694,2.0691,2.0685,2.0725,2.0725,2.0754,2.0754,2.0754]},{"header":{"parameterUnit":"m.s-1","parameterCategory":1,"la1":30.2991,"la2":30.254,"lo1":-89.0895,"lo2":-89.0444,"dy":0.0017,"dx":0.0017,"nx":28,"ny":28,"refTime":"2024-07-21T09:00:00:Z","depth":0,"parameterNumber":3,"parameterNumberName":"V-component_of_WINDS"},"data":[0,0,0,0,0,0,0,0,0,0,0,0,0,0,0,0,0,0,0,0,0,0,0,0,0,0,0,0,0,0,0,0,0,0,0,0,0,0,0,0,0,0,0,0,0,0,0,0,0,0,0,0,0,0,0,0,0,0,2.8986,2.8986,0,2.9022,2.9023,2.9023,2.9056,2.9057,2.9057,2.9058,2.9091,2.9091,2.9092,0,0,0,0,0,0,0,0,0,0,0,0,0,2.8941,2.8942,2.8986,2.8986,2.8987,2.9022,2.9023,2.9023,2.9056,2.9057,2.9057,2.9058,2.9091,2.9091,2.9092,0,0,0,0,0,0,0,0,0,0,0,0,0,2.8967,2.8942,2.8986,2.9008,2.901,2.9022,2.9023,2.9023,2.9056,2.9057,2.9057,2.9058,2.9091,2.9091,2.9092,2.9084,0,0,2.9094,2.9095,0,0,0,0,0,0,0,0,2.8966,2.8969,2.9004,2.9006,2.9009,2.9036,2.9019,2.9044,2.9056,2.9039,2.9058,2.9058,2.9072,2.9074,2.9079,2.9086,2.9087,2.9094,2.9095,2.9095,2.9095,0,0,0,0,0,0,0,2.8964,2.8968,2.9,2.9005,2.9008,2.9014,2.9019,2.9024,2.9051,2.904,2.9043,2.9047,2.9073,2.9079,2.908,2.9088,2.9094,2.9095,2.9095,2.9096,2.9088,2.9087,0,0,0,0,0,0,2.8959,2.8966,2.8999,2.9001,2.8989,2.9015,2.902,2.9026,2.9051,2.9056,2.9046,2.9048,2.9077,2.9079,2.9082,2.9073,2.9095,2.9096,2.9096,2.9088,2.9088,2.9087,0,0,0,0,0,0,2.8958,2.8962,2.8998,2.8984,2.8989,2.9015,2.9022,2.9027,2.9032,2.9056,2.906,2.9047,2.9078,2.9081,2.9083,2.9075,2.9096,2.9097,2.9089,2.9088,2.9087,2.9056,0,0,0,0,0,0,2.8957,2.8962,2.896,2.8984,2.899,2.9,2.9022,2.9027,2.9034,2.9037,2.9058,2.9062,2.9078,2.9082,2.9084,2.9076,2.9097,2.909,2.9089,2.9087,2.9058,2.9054,2.9051,0,0,0,0,0,2.8955,2.8949,2.896,2.8963,2.8989,2.8999,2.9002,2.9023,2.9033,2.9031,2.9046,2.9061,2.9076,2.9082,2.9084,2.9077,2.9091,2.9089,2.9088,2.906,2.9055,2.9051,0,0,0,0,0,0,2.8922,2.8953,2.8965,2.8967,2.898,2.9005,2.9003,2.9017,2.9027,2.9029,2.9053,2.9057,2.9057,2.9067,2.9074,2.907,2.9085,2.9084,2.9063,2.9059,2.9055,2.9052,2.9098,0,0,0,0,0,2.8915,2.8923,2.8949,2.8948,2.8954,2.8977,2.8982,2.8997,2.9011,2.9017,2.9032,2.9044,2.9052,2.9056,2.9064,2.906,2.9064,2.9056,2.9052,2.9049,2.9048,2.9045,2.9041,2.9082,2.9082,2.9082,0,0,2.8901,2.8918,2.8921,2.8941,2.8954,2.8959,2.8982,2.8987,2.8991,2.9017,2.9021,2.9032,2.9047,2.9046,2.9047,2.9055,2.9038,2.9047,2.9045,2.9045,2.9043,2.9039,2.9036,2.9081,2.9081,2.9081,0,0,2.8877,2.8892,2.8892,2.8904,2.8923,2.8938,2.8938,2.896,2.8969,2.8973,2.8993,2.8997,2.901,2.9019,2.9026,2.9005,2.9019,2.9007,2.8988,2.8985,2.8982,2.8979,2.897,2.8967,2.9006,2.9005,2.9005,0,2.8856,2.8867,2.889,2.8894,2.8902,2.8927,2.8926,2.8936,2.8956,2.896,2.8969,2.8985,2.8997,2.8998,2.8993,2.8998,2.8997,2.9004,2.8981,2.8978,2.8976,2.8968,2.8965,2.9004,2.9004,2.9004,2.9004,0,2.884,2.8847,2.8844,2.8864,2.8871,2.8873,2.8895,2.8899,2.8913,2.8926,2.8929,2.8945,2.8956,2.8957,2.897,2.896,2.8964,2.8977,2.8992,2.897,2.8963,2.896,2.9001,2.9002,2.9003,2.9003,0,0,2.8796,2.8828,2.8827,2.8835,2.8857,2.8862,2.8864,2.8876,2.8879,2.8891,2.8893,2.8902,2.8914,2.8921,2.8936,2.8933,2.8914,2.8946,2.8947,2.8939,2.8902,2.8891,2.8887,2.8924,2.8923,2.8923,2.89,0,2.8775,2.8782,2.8802,2.8802,2.8808,2.8832,2.8833,2.8846,2.8859,2.8864,2.8878,2.8884,2.89,2.8904,2.8903,2.8917,2.8907,2.8919,2.8924,2.8924,2.8918,2.8884,2.8873,2.885,2.8897,2.8897,2.8897,0,2.8752,2.8763,2.8764,2.8785,2.8788,2.8789,2.8801,2.8807,2.8821,2.883,2.8838,2.8854,2.8856,2.8872,2.8874,2.8881,2.8885,2.8892,2.8891,2.8892,2.8908,2.8882,2.8844,2.884,2.8893,2.8893,2.8893,0,2.8718,2.8734,2.8736,2.8743,2.8768,2.8768,2.8778,2.8793,2.8798,2.8808,2.8812,2.8822,2.8827,2.8833,2.8851,2.8861,2.885,2.8867,2.8857,2.8856,2.8853,2.8852,2.8813,2.8856,2.8856,2.8857,2.8857,0,2.8692,2.8691,2.8721,2.8723,2.8722,2.8745,2.8743,2.8755,2.8768,2.8771,2.8792,2.8793,2.8817,2.8821,2.8835,2.8834,2.8836,2.8843,2.8846,2.884,2.8839,2.8842,2.8843,2.8856,2.8856,2.8856,2.8856,0,2.8654,2.8675,2.8678,2.8702,2.8707,2.8706,2.8725,2.8726,2.874,2.8743,2.8745,2.8767,2.8772,2.8791,2.8801,2.881,2.8805,2.8812,2.88,2.8802,2.879,2.879,2.875,2.8745,2.8792,2.8792,2.8792,0,2.8636,2.8636,2.8659,2.8663,2.8672,2.8678,2.8684,2.8706,2.8711,2.8727,2.8726,2.8734,2.8741,2.8749,2.8765,2.8772,2.8779,2.8765,2.8781,2.8774,2.8778,2.8777,2.8776,2.8761,2.876,2.876,2.8759,0,2.86,2.861,2.8619,2.863,2.8637,2.8646,2.8657,2.8659,2.8683,2.8688,2.8694,2.87,2.8711,2.8718,2.8728,2.8737,2.8751,2.8755,2.8752,2.8746,2.8738,2.8741,2.8789,2.8755,2.8756,2.8756,2.8756,2.8756,2.8571,2.8571,2.8588,2.8596,2.8607,2.8616,2.8618,2.8632,2.8639,2.865,2.8662,2.8667,2.868,2.8696,2.8703,2.8707,2.8715,2.8712,2.8711,2.8709,2.8706,2.8739,2.8709,2.8709,2.8709,2.8709,2.8709,0,2.8535,2.8547,2.8554,2.8569,2.8575,2.859,2.8603,2.8606,2.861,2.8622,2.8629,2.8636,2.8643,2.8659,2.8667,2.8666,2.8673,2.8667,2.8667,2.8668,2.8699,2.87,2.8661,2.8661,2.8661,2.8661,2.8661,2.8661,2.8517,2.8519,2.8531,2.8537,2.8548,2.8554,2.856,2.8568,2.8577,2.8585,2.8591,2.8602,2.8614,2.8623,2.8629,2.8634,2.8635,2.8627,2.8633,2.8662,2.8666,2.867,2.8671,2.8627,2.8627,2.8602,2.8602,2.8602]}]]